Location: Central Falls
(41.8900°N, 71.3929°W)
Time: 14:27:21
(UTC+00:00)

Vanguard 1 Rocket - Pass Details

Date: 09 December 2023
Orbit: 654 x 4218 km, 34.3° (Epoch: 24 February)

Event Time Altitude Azimuth Distance (km) Brightness Sun altitude
Rises 11:45:18 0° 267° (W) 8,026 11.7 -3.4°
Reaches altitude 10° 11:51:28 10° 265° (W) 6,604 11.3 -2.4°
Maximum altitude 12:10:03 61° 192° (SSW) 2,461 9.8 0.6°
Drops below altitude 10° 12:19:30 10° 115° (ESE) 3,573 12.7 2.0°
Sets 12:21:49 0° 111° (ESE) 4,247 12.9 2.4°
